Regional Weather Roundup
Issued by NWS

Home | Current Version | Previous Version | Text Only | Print | Product List | Glossary Off
Versions: 1 2 3 4 5 6 7 8 9 10 11 12 13 14 15 16 17 18 19 20 21 22 23 24 25 26 27 28 29 30 31 32 33 34 35 36 37 38 39 40 41 42 43 44 45 46 47 48 49 50

000
ASUS43 KMPX 160810
RWRMN
WEATHER ROUNDUP FOR MINNESOTA
NATIONAL WEATHER SERVICE TWIN CITIES/CHANHASSEN MN
300 AM CDT WED AUG 16 2017


NOTE: "FAIR" INDICATES FEW OR NO CLOUDS BELOW 12,000 FEET WITH NO
SIGNIFICANT WEATHER AND/OR OBSTRUCTIONS TO VISIBILITY. N/A MEANS
CURRENT SKY AND/OR WEATHER CONDITIONS ARE NOT AVAILABLE.

MNZ060>063-068>070-160900-
   Twin Cities Metro

CITY           SKY/WX    TMP DP  RH WIND       PRES   REMARKS
TWIN CITIES    LGT RAIN  66  61  84 S12       29.97R
ST PAUL        CLOUDY    66  62  87 SE10      29.97R
CRYSTAL        CLOUDY    67  58  72 S9        29.95R
BLAINE         CLOUDY    66  61  82 SE3       29.96S
LAKEVILLE      HVY RAIN  63  63 100 E3        29.96S
EDEN PRAIRIE   HVY RAIN  65  63  93 SE6       29.95S FOG
SOUTH ST PAUL  LGT RAIN  66  61  86 S9        29.97R
LAKE ELMO      FAIR      61  59  94 CALM      29.99R
$$
MNZ001>005-007-008-013>017-022>024-027-028-160900-
   Northwest Minnesota

CITY           SKY/WX    TMP DP  RH WIND       PRES   REMARKS
BEMIDJI        CLOUDY    65  60  86 SE5       29.95S
HALLOCK        LGT RAIN  64  63  94 CALM      29.89F
ROSEAU         CLOUDY    64  59  82 CALM      29.93S
WARROAD        CLOUDY    64  63  94 CALM      29.94S
THIEF RVR FALL CLOUDY    66  59  78 E9        29.92F
CROOKSTON      RAIN      66  61  82 SE9       29.89F
FOSSTON        CLOUDY    63  55  77 CALM      29.93F
DETROIT LAKES  DRIZZLE   64  59  82 SE9       29.92S
MOORHEAD       LGT RAIN  64  61  88 SE6       29.88R
PARK RAPIDS    CLOUDY    65  58  78 SE6       29.93F
MAHNOMEN       CLOUDY    64  58  79 SE3       29.91S
$$
MNZ006-009>011-018-025>026-160900-
   North Central Minnesota

CITY           SKY/WX    TMP DP  RH WIND       PRES   REMARKS
BAUDETTE       CLOUDY    66  60  81 S8        29.95R
FLAG ISLAND    CLOUDY    70  64  83 CALM      29.92S
INTL FALLS     CLOUDY    64  56  75 S6        29.98R
WASKISH        CLOUDY    64  61  88 SE3       29.96S
BIG FORK       MOCLDY    61  55  82 SE3       29.99R
LONGVILLE      CLOUDY    61  61 100 CALM      29.96R
GRAND RAPIDS   CLOUDY    59  54  83 SE7       30.00S
CRANE LAKE     CLOUDY    55  52  88 CALM      30.02R
ORR            CLOUDY    57  45  62 SE5       29.99R
COOK             N/A     59  46  63 SE6       30.01S
WALKER         PTSUNNY   64  60  85 SE6       29.95R
$$
MNZ012-019>021-037-160900-
   Northeast Minnesota

CITY           SKY/WX    TMP DP  RH WIND       PRES   REMARKS
DULUTH         CLOUDY    57  56  96 E10       30.02S
ELY            CLOUDY    48  46  93 CALM      30.03S
HIBBING        CLOUDY    54  50  86 SE5       30.00S
EVELETH        CLOUDY    55  49  79 NE3       30.02S
DULUTH HARBOR  MOCLDY    63  61  94 NE15      30.02R
TWO HARBORS    PTCLDY    59  54  82 NE3       30.02R
SILVER BAY     CLOUDY    52  50  93 CALM      30.02
GRAND MARAIS     N/A     50  48  93 N3        30.05R
G MARAIS ARPRT CLOUDY    45  39  81 CALM      30.08R
$$
MNZ029>031-032-039>041-046>048-054>057-064-160900-
   West Central Minnesota

CITY           SKY/WX    TMP DP  RH WIND       PRES   REMARKS
FERGUS FALLS   CLOUDY    64  61  88 SE8       29.88S
WHEATON        CLOUDY    63  61  94 SE7       29.88S
MORRIS         CLOUDY    64  63  94 SE9       29.86F
ALEXANDRIA     CLOUDY    63  60  90 SE10      29.92F
ELBOW LAKE     FAIR      63  61  91 SE7       29.89S
WADENA         CLOUDY    61  57  88 SE5       29.92S
GLENWOOD       CLOUDY    63  61  94 SE8       29.91F
APPLETON       CLOUDY    66  61  82 SE9       29.86F
BENSON         CLOUDY    66  61  82 S9        29.90S
ORTONVILLE     CLOUDY    64  61  88 MISG      29.86S
MADISON        CLOUDY    66  66 100 SE10      29.86F FOG
WILLMAR        CLOUDY    66  63  88 E10       29.91S
$$
MNZ033>034-036-042>043-049>051-058-059-160900-
   Central Minnesota

CITY           SKY/WX    TMP DP  RH WIND       PRES   REMARKS
ST CLOUD       CLOUDY    62  60  93 E7        29.94S
SAUK CENTRE    FAIR      62  59  91 E8        29.92F
PAYNESVILLE    CLOUDY    64  61  89 SE13      29.93S
AITKIN         CLOUDY    61  57  88 E3        29.95S
PINE RIVER     CLOUDY    61  57  88 SE7       29.98R
BRAINERD       CLOUDY    64  59  83 CALM      29.95S
STAPLES        CLOUDY    63  55  77 CALM      29.93S
LONG PRAIRIE   FAIR      61  59  94 E8        29.93F
LITTLE FALLS   CLOUDY    61  55  82 SE6       29.94R
LITCHFIELD     CLOUDY    64  64 100 SE12      29.93S
BUFFALO        CLOUDY    64  60  86 SE3       29.95F
HUTCHINSON     CLOUDY    65  63  96 E9        29.94S
$$
MNZ037-044-045-052-053-160900-
   East Central Minnesota

CITY           SKY/WX    TMP DP  RH WIND       PRES   REMARKS
PRINCETON      CLOUDY    63  59  88 E5        29.96R
MORA           CLOUDY    59  55  88 SE5       29.98S
RUSH CITY      MOCLDY    61  57  88 CALM      29.97F
MOOSE LAKE     CLOUDY    59  55  88 CALM      29.98S
HINCKLEY       FAIR      61  61 100 E5        29.98S
CLOQUET        CLOUDY    59  55  88 E6        30.01R
MCGREGOR       CLOUDY    59  55  88 E5        29.99S
$$
MNZ071>073-080-081-089-090-097-098-160900-
   Southwest Minnesota

CITY           SKY/WX    TMP DP  RH WIND       PRES   REMARKS
MONTEVIDEO     CLOUDY    64  64 100 S7        29.88S
GRANITE FALLS  CLOUDY    67  64  91 E10       29.89S
CANBY          CLOUDY    65  64  96 CALM      29.87S FOG
MARSHALL       CLOUDY    65  63  93 SE6       29.87S
REDWOOD FALLS  CLOUDY    65  62  90 SE12      29.88S
OLIVIA         CLOUDY    63  61  94 SE8       29.89S
PIPESTONE      CLOUDY    66  64  94 S8        29.88S
WINDOM         LGT RAIN  66  64  94 SE10      29.90F
WORTHINGTON    CLOUDY    66  65  96 SE6       29.90S FOG
JACKSON        CLOUDY    64  64 100 CALM      29.91F FOG
TRACY          CLOUDY    67  66  97 S10       29.88F
SLAYTON        CLOUDY    64  60  86 SE10      29.90S FOG
$$
MNZ065>067-074>077-082>085-091>093-160900-
   South Central Minnesota

CITY           SKY/WX    TMP DP  RH WIND       PRES   REMARKS
MANKATO        LGT RAIN  65  63  93 E9        29.93R
NEW ULM        CLOUDY    64  63  94 SE9       29.91R
ST JAMES       LGT RAIN  64  63  94 SE7       29.91F
FAIRMONT       CLOUDY    65  64  97 SE7       29.92S
GLENCOE        CLOUDY    65  65 100 E10       29.92F
FARIBAULT      CLOUDY    64  63  94 E5        29.95R
OWATONNA       CLOUDY    64  63  94 E5        29.94S
WASECA         CLOUDY    63  61  94 E6        29.95R
ALBERT LEA     CLOUDY    66  64  94 SE7       29.93S
$$
MNZ078>079-086>088-094>096-160900-
   Southeast Minnesota

CITY           SKY/WX    TMP DP  RH WIND       PRES   REMARKS
ROCHESTER      CLOUDY    63  62  97 SE8       29.96S
RED WING       HVY RAIN  64  63  94 CALM      29.97R VSB 1
STANTON        RAIN      64  62  91 E8        29.94F
DODGE CENTER   CLOUDY    63  61  94 E6        29.96S
WINONA         CLOUDY    64  63  94 CALM      29.97S
AUSTIN         CLOUDY    64  61  88 CALM      29.95R
PRESTON        CLOUDY    64  60  87 E6        29.98R
$$
ABBREVIATIONS USED IN REMARKS
   TC - TEMPERATURES IN CELSIUS
  WCI - WIND CHILL INDEX
   HX - HEAT INDEX
  VSB - VISIBILITY
$$




USA.gov is the U.S. government's official web portal to all federal, state and local government web resources and services.